Location: Moscow
(55.7500°N, 37.5830°E)
Time: 19:58:09
(UTC+03:00)

Tiros 1 - Pass Details

Date: 06 December 2021
Orbit: 629 x 664 km, 48.4° (Epoch: 19 January)

Event Time Altitude Azimuth Distance (km) Brightness Sun altitude
Rises 17:40:39 0° 194° (SSW) 2,911 11.0 -13.1°
Reaches altitude 10° 17:44:34 10° 161° (SSE) 2,015 9.7 -13.6°
Maximum altitude 17:46:01 11° 143° (SE) 1,928 9.4 -13.8°
Drops below altitude 10° 17:47:29 10° 124° (SE) 2,023 9.4 -14.0°
Enters shadow 17:47:51 - 120° (ESE) 2,073 9.4 -14.0°
